[[{"header":{"parameterUnit":"m.s-1","parameterCategory":1,"la1":30.2991,"la2":30.254,"lo1":-89.0895,"lo2":-89.0444,"dy":0.0017,"dx":0.0017,"nx":28,"ny":28,"refTime":"2023-09-11T21:00:00:Z","depth":0,"parameterNumber":2,"parameterNumberName":"U-component_of_WINDS"},"data":[0,0,0,0,0,0,0,0,0,0,0,0,0,0,0,0,0,0,0,0,0,0,0,0,0,0,0,0,0,0,0,0,0,0,0,0,0,0,0,0,0,0,0,0,0,0,0,0,0,0,0,0,0,0,0,0,0,0,1.1553,1.1554,0,1.1701,1.1703,1.1704,1.1714,1.1713,1.1711,1.171,1.1869,1.1875,1.188,0,0,0,0,0,0,0,0,0,0,0,0,0,1.1286,1.129,1.1553,1.1555,1.1556,1.1701,1.1703,1.1705,1.1715,1.1713,1.1711,1.1709,1.1867,1.1874,1.1881,0,0,0,0,0,0,0,0,0,0,0,0,0,1.1415,1.1292,1.1552,1.1579,1.1582,1.17,1.1703,1.1705,1.1715,1.1713,1.171,1.1708,1.1865,1.1873,1.1882,1.1986,0,0,1.1908,1.1912,0,0,0,0,0,0,0,0,1.1407,1.1424,1.1573,1.1577,1.1581,1.1686,1.1667,1.18,1.1716,1.1665,1.1709,1.1707,1.1811,1.1824,1.1857,1.1993,1.2,1.1909,1.1914,1.1918,1.1921,0,0,0,0,0,0,0,1.1398,1.1418,1.1612,1.1575,1.158,1.1585,1.1601,1.1692,1.1751,1.1669,1.167,1.1687,1.1813,1.1849,1.1861,1.2003,1.1909,1.1917,1.1922,1.1925,1.2233,1.2235,0,0,0,0,0,0,1.1383,1.1411,1.1607,1.1616,1.1486,1.1592,1.1609,1.1655,1.1749,1.1761,1.1689,1.1687,1.1835,1.1851,1.1867,1.1996,1.1918,1.1926,1.1931,1.223,1.2233,1.2236,0,0,0,0,0,0,1.1378,1.1401,1.1601,1.1514,1.1539,1.1599,1.1651,1.166,1.1696,1.1764,1.1776,1.1715,1.1834,1.1855,1.1956,1.2001,1.193,1.1938,1.2226,1.2231,1.2235,1.2254,0,0,0,0,0,0,1.137,1.1399,1.1437,1.1514,1.1544,1.1685,1.1654,1.1664,1.171,1.1709,1.1792,1.1803,1.1834,1.1943,1.1965,1.2012,1.1945,1.2223,1.2228,1.2233,1.225,1.2258,1.2266,0,0,0,0,0,1.136,1.1438,1.1439,1.1463,1.1593,1.1688,1.1705,1.1736,1.1713,1.1754,1.1798,1.18,1.1992,1.1953,1.1978,1.2029,1.222,1.2227,1.2233,1.2246,1.2257,1.2266,0,0,0,0,0,0,1.1367,1.1449,1.1451,1.1555,1.1614,1.1689,1.1741,1.1747,1.1816,1.1812,1.185,1.1869,1.1969,1.2009,1.1964,1.2135,1.2104,1.2116,1.2105,1.2116,1.2124,1.2113,1.1952,0,0,0,0,0,1.138,1.1448,1.1517,1.1603,1.1632,1.1681,1.1724,1.1742,1.1806,1.1832,1.1884,1.1948,1.2023,1.2071,1.2144,1.2255,1.2274,1.2302,1.231,1.2316,1.2327,1.239,1.2403,1.2258,1.2258,1.2258,0,0,1.141,1.1462,1.1504,1.1605,1.1653,1.1725,1.1703,1.178,1.1834,1.1845,1.1943,1.1983,1.2057,1.2164,1.2214,1.22,1.2371,1.2325,1.2329,1.2337,1.2398,1.2412,1.2424,1.2263,1.2262,1.2261,0,0,1.15,1.1545,1.1622,1.167,1.1742,1.1775,1.1793,1.1867,1.1893,1.1992,1.2002,1.2068,1.2196,1.2248,1.2292,1.2401,1.2406,1.2423,1.2467,1.2528,1.254,1.255,1.259,1.2604,1.2433,1.2433,1.2433,0,1.1528,1.1634,1.1662,1.1738,1.1784,1.1794,1.1873,1.1919,1.2012,1.2045,1.2027,1.2188,1.2238,1.2358,1.2384,1.2418,1.2442,1.2415,1.2535,1.2546,1.2556,1.2595,1.261,1.2435,1.2435,1.2435,1.2434,0,1.1666,1.1739,1.1793,1.188,1.1931,1.2009,1.2051,1.21,1.2113,1.2148,1.225,1.231,1.2395,1.2425,1.244,1.2547,1.2536,1.2527,1.2497,1.2571,1.2608,1.2624,1.2437,1.2437,1.2436,1.2436,0,0,1.1766,1.1866,1.1886,1.1925,1.2005,1.2064,1.2142,1.2223,1.2265,1.2329,1.2398,1.2504,1.2496,1.2545,1.2566,1.2619,1.2703,1.2603,1.2606,1.2621,1.2827,1.2835,1.2851,1.2706,1.2709,1.2712,1.2821,0,1.1866,1.2004,1.2031,1.2152,1.2222,1.2232,1.2301,1.2358,1.2392,1.2458,1.2497,1.2573,1.2555,1.2585,1.2637,1.2682,1.2745,1.2674,1.2773,1.2776,1.2756,1.2871,1.288,1.298,1.2836,1.2838,1.284,0,1.2002,1.2066,1.2193,1.2263,1.2294,1.2355,1.2431,1.2493,1.2559,1.2581,1.2635,1.265,1.2734,1.2699,1.2817,1.2768,1.281,1.2838,1.2842,1.2855,1.2814,1.2888,1.3012,1.3028,1.2863,1.2861,1.2859,0,1.2064,1.2183,1.2274,1.2308,1.2392,1.2435,1.2472,1.2535,1.2582,1.265,1.2681,1.2758,1.2801,1.2861,1.2898,1.2868,1.3014,1.2981,1.3036,1.3036,1.3068,1.3066,1.3203,1.3092,1.3092,1.3092,1.3091,0,1.2175,1.2252,1.2303,1.236,1.2448,1.2479,1.2566,1.2603,1.2659,1.2725,1.2739,1.2801,1.2844,1.2913,1.2942,1.3036,1.3055,1.3076,1.3084,1.3076,1.3074,1.3106,1.3101,1.3096,1.3095,1.3094,1.3093,0,1.226,1.2297,1.2398,1.2468,1.2488,1.255,1.2611,1.2668,1.2701,1.2784,1.2805,1.2859,1.2941,1.2982,1.3084,1.3104,1.3211,1.3213,1.3188,1.3191,1.3244,1.3239,1.3409,1.3433,1.3304,1.3305,1.3306,0,1.2329,1.2389,1.2465,1.2508,1.2546,1.2617,1.2664,1.2697,1.2746,1.2825,1.2873,1.2954,1.3021,1.315,1.32,1.3279,1.3284,1.3338,1.3296,1.3287,1.3287,1.3284,1.3291,1.3346,1.3347,1.3348,1.3349,0,1.2448,1.2463,1.2529,1.2602,1.2657,1.2717,1.2776,1.2811,1.2854,1.2909,1.2991,1.3042,1.3145,1.3227,1.3308,1.335,1.3358,1.3361,1.3378,1.3373,1.3356,1.3367,1.321,1.3358,1.3357,1.3356,1.3356,1.3355,1.2529,1.2582,1.2644,1.2718,1.2765,1.2819,1.2876,1.2915,1.2983,1.3068,1.3084,1.3171,1.3236,1.3346,1.339,1.346,1.3449,1.3473,1.348,1.3486,1.3489,1.3343,1.3475,1.3475,1.3474,1.3474,1.3474,0,1.265,1.2689,1.2756,1.2837,1.2895,1.2894,1.2959,1.3009,1.3084,1.3143,1.3208,1.3303,1.3381,1.3436,1.3517,1.3563,1.3568,1.3583,1.3581,1.3591,1.3494,1.3472,1.3577,1.3577,1.3577,1.3577,1.3577,1.3577,1.2719,1.281,1.2833,1.2948,1.2988,1.3071,1.3109,1.316,1.3207,1.3311,1.3375,1.341,1.3468,1.3552,1.3625,1.364,1.367,1.3684,1.3699,1.3608,1.3597,1.3587,1.3566,1.369,1.369,1.379,1.3791,1.3792]},{"header":{"parameterUnit":"m.s-1","parameterCategory":1,"la1":30.2991,"la2":30.254,"lo1":-89.0895,"lo2":-89.0444,"dy":0.0017,"dx":0.0017,"nx":28,"ny":28,"refTime":"2023-09-11T21:00:00:Z","depth":0,"parameterNumber":3,"parameterNumberName":"V-component_of_WINDS"},"data":[0,0,0,0,0,0,0,0,0,0,0,0,0,0,0,0,0,0,0,0,0,0,0,0,0,0,0,0,0,0,0,0,0,0,0,0,0,0,0,0,0,0,0,0,0,0,0,0,0,0,0,0,0,0,0,0,0,0,1.0951,1.0952,0,1.1072,1.1074,1.1075,1.1097,1.1096,1.1095,1.1094,1.1217,1.1221,1.1225,0,0,0,0,0,0,0,0,0,0,0,0,0,1.0734,1.0738,1.0951,1.0952,1.0954,1.1072,1.1074,1.1075,1.1097,1.1096,1.1095,1.1093,1.1216,1.1221,1.1226,0,0,0,0,0,0,0,0,0,0,0,0,0,1.0839,1.0739,1.0951,1.0979,1.0983,1.1072,1.1074,1.1076,1.1097,1.1096,1.1094,1.1093,1.1214,1.122,1.1226,1.1295,0,0,1.1246,1.1249,0,0,0,0,0,0,0,0,1.0833,1.0847,1.0973,1.0977,1.0982,1.1068,1.1042,1.1149,1.1098,1.1054,1.1094,1.1092,1.1169,1.1179,1.1205,1.1301,1.1306,1.1246,1.125,1.1253,1.1255,0,0,0,0,0,0,0,1.0826,1.0842,1.0999,1.0975,1.098,1.0984,1.0998,1.1063,1.1118,1.1057,1.1059,1.1073,1.1171,1.1198,1.1208,1.1308,1.1246,1.1252,1.1256,1.1258,1.1462,1.1464,0,0,0,0,0,0,1.0814,1.0836,1.0995,1.1002,1.0902,1.0989,1.1004,1.1042,1.1117,1.1128,1.1075,1.1074,1.1188,1.12,1.1212,1.1294,1.1253,1.1259,1.1262,1.146,1.1462,1.1464,0,0,0,0,0,0,1.0809,1.0828,1.099,1.092,1.0941,1.0995,1.1037,1.1045,1.1073,1.113,1.114,1.1093,1.1188,1.1203,1.1273,1.1299,1.1262,1.1267,1.1459,1.1461,1.1463,1.1461,0,0,0,0,0,0,1.0803,1.0826,1.0854,1.092,1.0944,1.1051,1.1038,1.1048,1.1084,1.1084,1.115,1.116,1.1188,1.1264,1.128,1.1307,1.1272,1.1456,1.146,1.1463,1.1459,1.1463,1.1467,0,0,0,0,0,1.0795,1.0849,1.0855,1.0874,1.098,1.1052,1.1066,1.1097,1.1086,1.1113,1.1149,1.1158,1.1294,1.1271,1.1289,1.1318,1.1455,1.1459,1.1462,1.1458,1.1463,1.1467,0,0,0,0,0,0,1.0786,1.0859,1.0866,1.0944,1.0991,1.1056,1.1092,1.1102,1.1154,1.1152,1.1188,1.1203,1.127,1.1302,1.1275,1.1387,1.1373,1.1381,1.1364,1.1369,1.1372,1.1363,1.1278,0,0,0,0,0,1.0792,1.0845,1.0906,1.0969,1.0992,1.1037,1.107,1.109,1.114,1.1161,1.1202,1.1251,1.1304,1.1338,1.1391,1.1464,1.1477,1.1493,1.1497,1.1499,1.1505,1.1542,1.1549,1.1476,1.1476,1.1476,0,0,1.0808,1.0854,1.0885,1.0968,1.1007,1.1059,1.1055,1.1111,1.1149,1.1169,1.1237,1.1269,1.1325,1.1396,1.1429,1.1424,1.1528,1.1504,1.1506,1.151,1.1546,1.1553,1.1559,1.1479,1.1478,1.1478,0,0,1.0861,1.0903,1.0957,1.0996,1.1055,1.1084,1.1097,1.1159,1.1181,1.125,1.1264,1.131,1.1402,1.144,1.1471,1.1534,1.1542,1.155,1.157,1.1605,1.1611,1.1616,1.1635,1.1642,1.1556,1.1556,1.1556,0,1.0872,1.0952,1.0984,1.1039,1.1073,1.1092,1.1146,1.1182,1.1255,1.1278,1.1271,1.1384,1.1424,1.1501,1.1516,1.1542,1.1556,1.1543,1.1608,1.1613,1.1618,1.1637,1.1645,1.1556,1.1556,1.1556,1.1556,0,1.0961,1.1016,1.1053,1.1121,1.116,1.1214,1.1252,1.1287,1.1302,1.1331,1.1399,1.1446,1.1507,1.1527,1.1544,1.1606,1.1601,1.1601,1.1588,1.1625,1.1643,1.1651,1.1557,1.1557,1.1557,1.1556,0,0,1.1013,1.1096,1.1109,1.1138,1.1203,1.1246,1.1299,1.1358,1.1385,1.1434,1.1478,1.1554,1.1552,1.1588,1.1608,1.164,1.1682,1.1635,1.1637,1.164,1.175,1.1748,1.1757,1.1688,1.169,1.1691,1.1744,0,1.1072,1.1168,1.1197,1.1277,1.1326,1.1344,1.139,1.1433,1.1461,1.1505,1.1536,1.1588,1.1584,1.1605,1.1637,1.167,1.1704,1.1667,1.1727,1.1729,1.1711,1.1767,1.1766,1.1815,1.1752,1.1753,1.1754,0,1.1154,1.1202,1.1287,1.1342,1.1364,1.1405,1.1459,1.1502,1.155,1.1568,1.1605,1.1622,1.1676,1.166,1.1733,1.1707,1.1733,1.1753,1.1755,1.1761,1.1743,1.1771,1.1831,1.1837,1.1766,1.1765,1.1764,0,1.1179,1.1266,1.1327,1.1353,1.1419,1.1447,1.1475,1.1522,1.1554,1.1601,1.1622,1.1674,1.1703,1.1742,1.1771,1.1758,1.184,1.1828,1.1855,1.1854,1.1871,1.1869,1.1933,1.1891,1.1891,1.189,1.189,0,1.1241,1.1291,1.1339,1.1377,1.1432,1.1464,1.1518,1.1547,1.1588,1.163,1.1649,1.1687,1.1724,1.1767,1.179,1.1845,1.1859,1.1873,1.1878,1.187,1.1868,1.1887,1.1884,1.1892,1.1892,1.1892,1.1891,0,1.1279,1.1313,1.138,1.1436,1.1452,1.149,1.1537,1.1573,1.1601,1.1653,1.1667,1.171,1.1761,1.1794,1.186,1.1875,1.1934,1.194,1.1917,1.192,1.1943,1.194,1.202,1.2031,1.1983,1.1983,1.1984,0,1.1315,1.1354,1.1413,1.1442,1.1471,1.1518,1.155,1.1582,1.1614,1.167,1.1698,1.175,1.1794,1.1874,1.191,1.1959,1.1964,1.1989,1.1972,1.1961,1.1962,1.1958,1.1961,1.1992,1.1992,1.1992,1.1993,0,1.1374,1.1388,1.1434,1.1485,1.1523,1.1564,1.1606,1.1629,1.1667,1.1702,1.1754,1.1787,1.1852,1.1903,1.1955,1.1983,1.1993,1.1997,1.2006,1.1998,1.1982,1.1988,1.1923,1.1995,1.1995,1.1995,1.1995,1.1995,1.141,1.1444,1.1491,1.154,1.1574,1.1612,1.1647,1.1678,1.1722,1.1778,1.1793,1.1846,1.189,1.1961,1.1989,1.203,1.2027,1.204,1.2043,1.2045,1.2044,1.1976,1.204,1.204,1.204,1.204,1.204,0,1.1468,1.1498,1.1543,1.16,1.1638,1.1645,1.169,1.1721,1.1768,1.1808,1.1849,1.1907,1.1955,1.1994,1.2043,1.2068,1.2074,1.208,1.2077,1.2083,1.2045,1.2032,1.2074,1.2074,1.2074,1.2074,1.2074,1.2074,1.1502,1.1559,1.1578,1.1651,1.168,1.1733,1.1757,1.1791,1.1823,1.1887,1.1927,1.1951,1.199,1.2042,1.2085,1.2095,1.2111,1.2116,1.2126,1.209,1.2086,1.2082,1.207,1.2119,1.212,1.2161,1.2161,1.2161]}]]